SCP
0 0 0 0 0 0 0 0 0 0 0 0 0 0 0 0 0 0 0 0 0 0 0 0 0 0 1 1 1 1 1 0 0 0 0 0 0 0 0 0 0 0 0 0 0 0 0 0 0
0 0 0 0 0 0 0 0 0 0 0 0 0 0 0 0 0 0 0 0 0 0 0 0 0 1 1 1 1 1 1 1 0 0 0 0 0 0 0 0 0 0 0 0 0 0 0 0 0
0 0 0 0 0 0 0 0 0 0 0 0 0 0 0 0 0 0 0 0 1 1 1 1 1 1 1 1 1 1 1 1 1 1 0 0 0 0 0 0 0 0 0 0 0 0 0 0 0
0 0 0 0 0 0 0 0 0 0 0 0 0 0 0 0 0 0 0 1 1 1 1 1 1 1 1 1 1 1 1 1 1 1 1 1 0 0 0 0 0 0 0 0 0 0 0 0 0
0 0 0 0 0 0 0 0 0 0 0 0 0 0 1 0 0 1 1 1 1 1 1 1 1 1 1 1 1 1 1 1 1 1 1 1 0 0 0 0 0 0 0 0 0 0 0 0 0
0 0 0 0 0 0 0 0 0 0 0 0 0 1 1 1 1 1 1 1 1 1 1 1 1 1 1 1 1 1 1 1 1 1 1 0 0 0 0 0 0 0 0 0 0 0 0 0 0
0 0 0 0 0 0 0 0 0 0 0 0 1 1 1 1 1 1 1 1 1 1 1 1 1 1 1 1 1 1 1 1 1 1 1 0 0 0 0 0 0 0 0 0 0 0 0 0 0
0 0 0 0 0 0 0 0 0 0 0 0 1 1 1 1 1 1 1 1 1 1 1 1 1 1 1 1 1 1 1 1 1 1 1 0 0 0 0 0 0 0 0 0 0 0 0 0 0
0 0 0 0 0 0 0 0 0 0 0 1 1 1 1 1 1 1 1 1 1 1 1 1 1 1 1 1 1 1 1 1 1 0 0 0 0 0 0 0 0 0 0 0 0 0 0 0 0
0 0 0 0 0 0 0 0 0 0 0 0 1 1 1 1 1 1 1 1 1 1 1 1 1 1 1 1 1 1 1 0 0 0 0 0 0 0 0 0 0 0 0 0 0 0 0 0 0
0 0 0 0 0 0 0 0 0 0 0 0 1 1 1 1 1 1 1 1 1 1 1 1 1 1 1 1 0 0 0 0 0 0 0 0 0 0 0 0 0 0 0 0 0 0 0 0 0
0 0 0 0 0 0 0 0 0 0 0 0 1 1 1 1 1 1 1 1 1 1 1 0 0 0 0 0 0 0 0 0 0 0 0 0 0 0 0 0 0 0 0 0 0 0 0 0 0
0 0 0 0 0 0 0 0 0 0 0 0 1 1 1 1 1 1 0 0 0 0 0 0 0 0 0 0 0 0 0 0 0 0 0 0 0 0 0 0 0 0 0 0 0 0 0 0 0
0 0 0 0 0 0 0 0 0 0 0 1 1 1 1 1 0 0 0 0 0 0 0 0 0 0 0 0 0 0 0 0 0 0 0 0 0 0 0 0 0 0 0 0 0 0 0 0 0
0 0 0 0 0 0 0 0 0 0 0 0 0 0 0 0 0 0 0 0 0 0 0 0 0 0 0 0 0 0 0 0 0 0 0 0 0 0 0 0 0 0 0 0 0 0 0 0 0
0 0 0 0 0 0 0 0 0 0 0 0 0 0 0 0 0 0 0 0 0 0 0 0 0 0 0 0 0 0 0 0 0 0 0 0 0 0 0 0 0 0 0 0 0 0 0 0 0
0 0 0 0 0 0 0 0 0 0 0 0 0 0 0 0 0 0 0 0 0 0 0 0 0 0 0 0 0 0 0 0 0 0 0 0 0 0 0 0 0 0 0 0 0 0 0 0 0
0 0 0 0 0 0 0 0 0 0 0 0 0 0 0 0 0 0 0 0 0 0 0 0 0 0 0 0 0 0 0 0 0 0 0 0 0 0 0 0 0 0 0 0 0 0 0 0 0
0 0 0 0 0 0 0 0 0 0 0 0 0 0 0 0 0 0 0 0 0 0 0 0 0 0 0 0 0 0 0 0 0 0 0 0 0 0 0 0 0 0 0 0 0 0 0 0 0
0 0 0 0 0 0 0 0 0 0 0 0 0 0 0 0 0 0 0 0 0 0 0 0 0 0 0 0 0 0 0 0 0 0 0 0 0 0 0 0 0 0 0 0 0 0 0 0 0
0 0 0 0 0 0 0 0 0 0 0 0 0 0 0 0 0 0 0 0 0 0 0 0 0 0 0 0 0 0 0 0 0 0 0 0 0 0 0 0 0 0 0 0 0 0 0 0 0
0 0 0 0 0 0 0 0 0 0 0 0 0 0 0 0 0 0 0 0 0 0 0 0 0 0 0 0 0 0 0 0 0 0 0 0 0 0 0 0 0 0 0 0 0 0 0 0 0
0 0 0 0 0 0 0 0 0 0 0 0 0 0 0 0 0 0 0 0 0 0 0 0 0 0 0 0 0 0 0 0 0 0 0 0 0 0 0 0 0 0 0 0 0 0 0 0 0
0 0 0 0 0 0 0 0 0 0 0 0 0 0 0 0 0 0 0 0 0 0 0 0 0 0 0 0 0 0 0 0 0 0 0 0 0 0 0 0 0 0 0 0 0 0 0 0 0
0 0 0 0 0 0 0 0 0 0 0 0 0 0 0 0 0 0 0 0 0 0 0 0 0 0 0 0 0 0 0 0 0 0 0 0 0 0 0 0 0 0 0 0 0 0 0 0 0
0 0 0 0 0 0 0 0 0 0 0 0 0 0 0 0 0 0 0 0 0 0 0 0 0 0 0 0 0 0 0 0 0 0 0 0 0 0 0 0 0 0 0 0 0 0 0 0 0
0 0 0 0 0 0 0 0 0 0 0 0 0 0 0 0 0 0 0 0 0 0 0 0 0 0 0 0 0 0 0 0 0 0 0 0 0 0 0 0 0 0 0 0 0 0 0 0 0
0 0 0 0 0 0 0 0 0 0 0 0 0 0 0 0 0 0 0 0 0 0 0 0 0 0 0 0 0 0 0 0 0 0 0 0 0 0 0 0 0 0 0 0 0 0 0 0 0
0 0 0 0 0 0 0 0 0 0 0 0 0 0 0 0 0 0 0 0 0 0 0 0 0 0 0 0 0 0 0 0 0 0 0 0 0 0 0 0 0 0 0 0 0 0 0 0 0
0 0 0 0 0 0 0 0 0 0 0 0 0 0 0 0 0 0 0 0 0 0 0 0 0 0 0 0 0 0 0 0 0 0 0 0 0 0 0 0 0 0 0 0 0 0 0 0 0
Wind_Speed
4 2 2 4 6 5 2 4 3 4 2 1 5 6 6 4 3 2 3 9 13 12 10 13 16 16 16 17 17 17 17 17 17 17 17 16 15 13 12 12 11 10 10 10 10 10 10 11 11
1 1 4 6 6 1 4 4 2 2 0 2 5 5 6 5 4 5 4 9 13 12 9 11 16 15 16 16 16 16 17 17 16 16 16 15 14 13 12 11 11 10 10 10 10 10 10 10 10
1 3 5 6 4 4 4 2 0 2 3 2 4 5 5 3 3 3 6 12 12 10 8 11 16 16 16 15 15 15 16 16 15 15 14 13 13 12 11 10 10 9 9 9 9 9 9 9 9
3 5 6 5 2 5 4 4 2 2 4 4 5 6 5 6 3 6 11 12 12 10 7 10 15 15 15 15 15 15 15 14 14 13 13 12 11 10 10 9 9 8 8 8 8 8 8 8 8
4 5 5 2 3 4 4 4 2 1 2 3 5 6 5 6 10 12 12 12 12 9 7 8 13 13 13 13 13 13 13 13 12 12 11 10 9 8 8 8 8 7 7 7 7 7 7 6 6
5 5 5 1 4 4 3 3 1 2 3 3 5 6 4 4 10 10 10 10 10 10 8 7 11 13 12 12 12 11 11 10 10 10 9 9 8 7 7 6 6 6 6 6 6 6 5 5 5
5 5 4 2 2 3 2 2 2 2 3 2 3 7 4 5 7 11 10 10 9 9 8 6 6 7 10 11 10 10 9 9 8 8 8 7 7 7 6 6 5 5 5 5 5 5 4 4 4
5 6 3 1 1 2 3 3 3 3 3 2 3 8 7 6 10 11 10 9 9 8 7 5 5 4 4 5 8 9 8 8 7 7 7 6 6 5 5 5 5 5 5 5 5 4 4 4 3
4 6 1 2 2 2 2 3 3 3 5 4 4 4 8 13 13 12 9 8 7 7 6 4 4 4 4 4 5 5 6 6 5 4 5 4 2 1 2 3 5 6 6 5 5 5 4 4 3
5 3 4 3 3 2 1 2 2 4 5 5 7 9 13 13 12 12 10 8 7 6 5 4 4 4 3 3 3 2 3 3 3 2 2 1 1 0 1 2 4 5 5 5 4 4 4 3 1
4 5 4 2 2 2 1 2 3 4 3 4 10 14 13 12 10 10 9 6 6 5 4 4 4 4 3 2 2 2 2 2 2 3 2 1 1 0 1 1 1 1 2 1 1 1 0 1 1
2 3 3 2 1 2 2 3 4 4 3 6 11 13 12 11 9 9 8 7 6 6 5 4 4 4 4 3 2 2 2 2 2 2 2 1 1 1 1 1 1 1 1 1 1 1 1 2 2
2 2 1 1 4 5 7 6 6 5 7 11 12 11 11 10 8 7 7 7 6 5 5 4 5 5 4 3 2 2 2 2 1 1 2 1 1 1 1 1 1 1 1 1 1 2 2 2 2
2 1 1 2 3 3 7 5 5 5 8 11 12 10 9 8 7 7 6 5 5 5 4 5 6 5 4 3 2 2 1 1 2 2 2 2 1 1 1 1 1 2 1 1 1 1 2 2 2
1 3 4 3 3 3 6 7 4 6 9 11 10 10 9 8 7 7 5 5 5 5 5 5 5 5 4 4 3 2 2 2 2 2 2 2 1 1 1 1 1 2 2 2 1 1 1 1 1
3 4 3 2 2 2 6 4 4 6 10 10 9 9 9 8 8 7 6 6 5 4 5 5 5 5 4 3 2 2 2 3 3 3 3 3 2 2 1 1 1 2 1 1 1 1 1 1 1
5 3 1 2 1 2 5 5 5 6 9 9 8 8 9 8 8 7 7 6 5 5 5 6 5 5 3 2 2 3 3 3 3 3 3 3 3 3 2 2 2 2 2 1 1 1 1 1 1
1 1 0 1 0 4 4 5 7 7 8 8 7 7 8 8 7 6 7 7 6 6 6 6 5 5 3 2 2 3 4 3 3 3 3 4 3 4 3 2 3 3 2 2 1 1 1 1 1
3 3 1 1 1 4 5 7 7 6 7 8 7 7 8 7 7 6 6 6 6 6 6 6 6 4 3 2 1 1 2 2 3 3 4 5 5 4 3 3 3 3 2 2 2 1 1 1 0
3 2 1 2 3 5 6 6 4 4 5 7 8 7 8 8 7 6 6 6 6 5 5 6 6 5 5 3 1 1 1 1 2 3 4 5 5 4 3 3 2 2 2 3 2 2 1 1 1
2 4 5 5 4 6 6 4 1 1 2 5 6 7 8 8 8 6 6 6 6 6 6 5 6 6 6 5 3 3 3 2 3 4 4 5 5 5 4 4 3 3 2 2 2 2 1 1 1
2 3 6 7 6 2 2 3 3 3 4 6 7 7 7 8 7 6 6 5 5 4 4 5 6 6 6 5 5 4 3 3 3 2 3 4 5 5 5 5 4 3 2 2 2 2 1 1 1
2 3 6 5 5 4 3 3 4 2 6 8 7 7 7 8 8 7 6 5 4 4 5 5 6 6 6 5 5 5 4 3 2 3 4 5 5 5 5 5 4 4 3 3 3 3 2 1 2
5 7 7 6 5 2 1 2 4 5 6 7 8 8 9 9 8 7 5 5 4 5 5 5 6 6 5 5 5 5 5 4 4 5 5 5 4 4 6 6 5 4 4 4 3 3 2 2 2
5 6 5 5 4 3 1 1 5 3 3 7 10 10 9 9 9 7 6 5 4 4 4 5 5 6 5 6 6 5 5 4 4 4 4 4 4 4 6 6 5 4 4 4 3 3 3 2 2
2 6 7 5 4 3 1 3 4 1 1 4 8 10 10 9 8 7 6 5 4 4 4 4 5 5 5 5 5 5 4 3 3 3 3 3 3 3 5 5 5 5 5 5 4 3 3 3 2
4 3 4 7 3 1 3 3 3 3 4 7 9 10 10 9 8 7 6 5 4 4 4 4 4 4 4 4 4 5 5 4 4 4 4 3 3 3 5 5 5 5 5 5 4 3 4 3 3
4 6 5 5 4 1 3 3 3 4 5 7 9 9 9 8 7 6 5 4 3 3 4 4 4 4 4 4 4 4 5 4 4 4 5 5 5 5 5 5 6 6 6 5 4 4 4 4 4
3 4 5 4 4 5 2 5 2 5 7 9 9 9 9 9 8 7 5 4 3 4 4 4 4 4 4 4 4 5 5 5 5 5 5 4 4 5 5 6 6 6 6 6 5 5 5 6 5
2 3 4 4 2 3 3 5 3 2 5 8 8 9 8 8 7 7 6 5 4 4 4 4 3 3 3 4 4 4 4 5 5 5 5 5 5 5 5 5 6 6 7 6 6 6 6 6 6
Wind_Direction
316 340 79 61 55 49 280 263 264 310 333 31 92 107 114 107 135 145 84 123 125 132 138 139 137 133 128 124 121 119 119 119 120 121 122 124 125 125 126 126 125 124 123 123 122 121 121 123 125
314 56 58 60 82 57 278 259 276 290 230 77 61 73 79 69 59 87 106 123 126 128 131 138 138 134 130 126 124 124 124 124 125 125 126 128 128 127 127 128 126 125 124 123 123 123 123 125 127
316 60 80 75 109 179 247 243 211 347 12 61 71 53 68 55 72 92 119 124 120 121 125 141 138 134 131 129 128 127 127 127 127 128 128 129 129 128 129 130 128 127 125 123 123 123 125 128 132
83 53 57 76 190 224 233 264 278 324 19 42 90 73 63 22 44 107 119 120 117 115 120 138 136 134 133 132 133 132 131 131 130 130 130 130 131 131 132 134 132 130 129 128 127 127 128 130 135
61 78 68 49 266 257 252 280 259 168 73 57 88 90 57 25 80 105 114 118 117 112 111 128 131 132 132 133 134 135 135 134 134 134 134 135 136 136 136 137 136 136 137 135 133 131 131 131 135
60 70 88 211 276 282 285 308 34 114 119 92 87 93 66 65 96 103 106 108 115 116 109 115 127 131 133 134 135 135 136 137 139 139 141 143 144 144 144 147 147 147 148 146 142 139 141 140 143
102 98 139 190 275 308 326 355 30 116 99 81 107 102 108 105 104 105 102 102 100 100 103 104 114 122 130 134 135 134 136 137 139 142 147 150 150 151 156 158 160 164 165 166 163 162 163 161 160
118 102 109 207 225 292 330 10 16 55 89 62 88 127 149 142 116 104 99 98 97 94 94 95 98 99 107 122 134 135 135 136 139 144 150 153 156 163 172 172 178 184 187 188 185 185 185 181 178
86 77 139 213 193 257 347 35 20 43 80 58 50 95 126 127 118 110 105 97 97 93 87 87 96 98 99 110 126 127 130 128 130 140 148 144 131 148 181 197 201 203 205 205 202 203 206 199 194
86 120 222 220 192 174 25 56 44 71 69 78 82 95 118 125 123 121 119 115 111 104 100 99 94 95 98 115 104 98 103 97 92 83 84 80 89 143 207 247 229 221 218 223 225 223 222 208 187
133 179 228 246 197 154 100 57 32 105 85 146 139 134 131 127 123 118 111 111 104 94 87 75 80 82 82 81 96 84 78 80 74 70 68 72 65 19 339 331 303 290 258 252 272 266 224 196 198
154 232 217 255 107 87 98 98 64 52 102 110 121 128 127 122 118 119 120 111 98 95 88 77 77 74 63 61 67 74 76 80 79 72 70 70 36 345 329 311 302 297 284 244 232 222 219 221 224
192 270 293 111 72 86 88 80 87 67 94 104 112 113 117 113 106 104 108 106 106 98 90 80 72 75 70 62 51 59 60 72 72 62 59 64 35 326 318 317 310 290 270 233 231 228 221 223 240
199 117 15 30 79 86 100 78 83 101 109 109 112 111 109 109 111 103 94 81 73 73 70 65 66 76 84 80 62 45 49 61 63 59 52 60 50 331 315 311 318 310 292 254 233 230 227 221 224
94 59 27 21 73 124 102 57 72 128 116 110 113 113 105 97 95 92 82 73 69 69 64 64 64 50 55 66 63 40 30 44 55 49 42 40 42 344 333 329 331 313 308 302 293 275 243 229 228
62 65 50 330 66 108 99 110 132 139 123 118 118 115 106 90 83 83 78 70 67 73 69 62 68 59 47 47 54 54 52 47 41 42 32 26 22 12 1 1 330 331 339 343 315 285 263 249 263
38 75 87 327 22 95 105 143 153 143 129 125 125 119 111 98 86 81 78 71 55 54 61 61 60 61 48 40 51 59 58 48 36 40 31 13 12 12 11 8 352 357 356 347 329 329 284 264 272
167 100 88 244 341 96 105 132 140 144 138 133 128 121 117 111 99 86 76 69 50 39 48 54 51 51 44 37 51 53 54 42 35 36 23 14 12 16 20 20 10 10 1 353 351 321 313 270 277
149 142 180 272 128 96 117 130 142 144 143 144 144 138 130 115 102 92 82 71 61 42 40 41 38 37 41 42 42 46 42 21 26 28 24 17 15 15 28 16 14 8 5 348 343 336 331 315 321
146 131 130 41 55 100 114 108 120 142 165 163 156 147 137 127 117 106 90 74 62 53 42 43 38 36 35 36 44 71 74 45 43 24 25 20 16 12 23 23 15 9 10 6 2 353 327 290 242
190 181 178 149 79 72 104 76 116 142 140 146 146 144 140 141 136 119 94 76 63 49 40 42 35 31 29 28 38 44 45 38 28 17 15 7 9 13 15 16 13 10 14 354 337 324 282 267 268
256 215 158 141 119 123 131 156 231 189 177 173 161 151 146 138 130 117 102 88 75 63 50 46 44 38 29 31 44 54 54 38 13 2 6 6 10 12 11 11 10 6 357 347 327 326 291 261 264
167 85 99 104 109 86 40 128 255 178 204 197 176 158 142 133 129 122 111 103 87 69 59 48 47 45 36 39 45 59 59 47 25 20 22 17 9 12 11 11 11 6 0 349 343 342 326 284 258
122 75 59 52 71 72 277 151 244 211 213 187 169 157 144 134 126 118 111 100 82 66 58 50 52 45 38 45 48 57 59 48 40 28 18 11 4 5 9 10 9 6 1 354 345 343 345 331 297
81 88 45 15 21 254 279 173 246 246 213 184 168 158 146 138 133 129 124 108 91 78 65 57 59 50 37 44 45 45 48 46 41 27 18 12 6 1 358 3 1 357 353 351 354 359 352 346 324
100 125 149 181 207 267 336 237 262 356 86 133 140 141 139 136 135 134 126 115 104 88 77 70 63 54 41 43 40 37 39 39 30 27 23 15 4 355 352 359 2 359 357 359 1 4 353 350 339
109 92 138 123 120 70 284 281 305 86 94 116 130 139 145 145 141 132 122 112 104 95 88 84 77 61 46 41 41 39 37 37 29 25 24 18 5 3 8 5 6 3 3 3 5 8 357 355 353
97 133 93 105 135 214 280 261 239 204 176 160 155 155 151 145 135 126 124 119 113 106 88 77 75 64 48 41 37 40 35 35 31 34 31 20 11 9 9 9 9 7 6 7 12 7 2 10 2
61 70 90 98 137 150 229 269 251 210 185 174 169 157 152 148 142 137 131 122 113 103 96 86 76 66 54 45 41 42 33 32 36 34 26 19 14 10 12 11 10 10 9 8 15 15 14 17 12
103 127 136 137 188 159 173 264 340 239 166 156 151 147 145 144 142 137 132 125 115 107 100 89 78 69 58 53 48 44 38 36 36 28 18 17 20 15 13 14 16 15 12 10 18 21 21 21 18